www.cux-wetter.de
Wetterdaten: Donnerstag, 03.09.2009
Datum Zeit Temp. A. Feuchte A. Luftdruck Regen Wind Richtung Richtung Sonnenschein Solar Taupunkt Windchill Windben
03.09.2009 00:04 15,0 C 81 % 1005,5 hPa 0,0 l/m 7,2 km/h (2 Bft) S-SO 160 0 min 0 W/m 11,8 C 14,5 C 7,2 km/h (2 Bft)
03.09.2009 00:08 15,0 C 81 % 1005,5 hPa 0,0 l/m 5,9 km/h (2 Bft) S-SO 160 0 min 0 W/m 11,8 C 15,0 C 5,9 km/h (2 Bft)
03.09.2009 00:14 15,0 C 81 % 1005,5 hPa 0,0 l/m 7,8 km/h (2 Bft) S-SO 160 0 min 0 W/m 11,8 C 14,2 C 7,8 km/h (2 Bft)
03.09.2009 00:19 15,0 C 80 % 1005,5 hPa 0,0 l/m 7,9 km/h (2 Bft) S-SO 165 0 min 0 W/m 11,6 C 14,2 C 7,9 km/h (2 Bft)
03.09.2009 00:24 15,0 C 80 % 1005,5 hPa 0,0 l/m 10,4 km/h (2 Bft) S 170 0 min 0 W/m 11,6 C 12,9 C 10,4 km/h (2 Bft)
03.09.2009 00:29 15,0 C 80 % 1005,5 hPa 0,0 l/m 10,1 km/h (2 Bft) S-SO 165 0 min 0 W/m 11,6 C 13,1 C 10,1 km/h (2 Bft)
03.09.2009 00:34 15,0 C 80 % 1005,5 hPa 0,0 l/m 7,8 km/h (2 Bft) S 175 0 min 0 W/m 11,6 C 14,2 C 7,8 km/h (2 Bft)
03.09.2009 00:39 15,0 C 80 % 1004,5 hPa 0,0 l/m 6,5 km/h (2 Bft) S 170 0 min 0 W/m 11,6 C 15,0 C 6,5 km/h (2 Bft)
03.09.2009 00:44 15,0 C 80 % 1004,5 hPa 0,0 l/m 8,5 km/h (2 Bft) S-SO 160 0 min 0 W/m 11,6 C 13,8 C 8,5 km/h (2 Bft)
03.09.2009 00:49 15,0 C 80 % 1004,5 hPa 0,0 l/m 8,6 km/h (2 Bft) S-SO 165 0 min 0 W/m 11,6 C 13,8 C 8,6 km/h (2 Bft)
03.09.2009 00:54 15,0 C 79 % 1004,5 hPa 0,0 l/m 7,8 km/h (2 Bft) S-SO 160 0 min 0 W/m 11,4 C 14,2 C 7,8 km/h (2 Bft)
03.09.2009 00:58 15,0 C 80 % 1004,5 hPa 0,0 l/m 7,2 km/h (2 Bft) S 175 0 min 0 W/m 11,6 C 14,5 C 7,2 km/h (2 Bft)
03.09.2009 01:04 15,0 C 80 % 1004,5 hPa 0,0 l/m 8,8 km/h (2 Bft) S 170 0 min 0 W/m 11,6 C 13,7 C 8,8 km/h (2 Bft)
03.09.2009 01:09 14,9 C 79 % 1004,5 hPa 0,0 l/m 9,8 km/h (2 Bft) S 180 0 min 0 W/m 11,3 C 13,1 C 9,8 km/h (2 Bft)
03.09.2009 01:14 14,8 C 79 % 1004,5 hPa 0,0 l/m 12,6 km/h (3 Bft) S 175 0 min 0 W/m 11,2 C 11,8 C 12,6 km/h (3 Bft)
03.09.2009 01:19 14,9 C 79 % 1004,5 hPa 0,0 l/m 11,5 km/h (2 Bft) S 175 0 min 0 W/m 11,3 C 12,4 C 11,5 km/h (2 Bft)
03.09.2009 01:24 14,9 C 79 % 1004,5 hPa 0,0 l/m 17,7 km/h (3 Bft) S 180 0 min 0 W/m 11,3 C 10,2 C 17,7 km/h (3 Bft)
03.09.2009 01:29 14,8 C 78 % 1004,5 hPa 0,0 l/m 12,2 km/h (2 Bft) S 170 0 min 0 W/m 11,0 C 12,0 C 12,2 km/h (2 Bft)
03.09.2009 01:33 14,7 C 78 % 1004,5 hPa 0,0 l/m 14,3 km/h (3 Bft) S 180 0 min 0 W/m 10,9 C 11,1 C 14,3 km/h (3 Bft)
03.09.2009 01:39 14,7 C 78 % 1004,5 hPa 0,0 l/m 9,4 km/h (2 Bft) S 190 0 min 0 W/m 10,9 C 13,1 C 9,4 km/h (2 Bft)
03.09.2009 01:44 14,7 C 79 % 1004,5 hPa 0,0 l/m 8,8 km/h (2 Bft) S 190 0 min 0 W/m 11,1 C 13,4 C 8,8 km/h (2 Bft)
03.09.2009 01:49 14,5 C 79 % 1003,5 hPa 0,0 l/m 10,4 km/h (2 Bft) S 185 0 min 0 W/m 10,9 C 12,4 C 10,4 km/h (2 Bft)
03.09.2009 01:54 14,5 C 79 % 1003,5 hPa 0,0 l/m 11,1 km/h (2 Bft) S 185 0 min 0 W/m 10,9 C 12,1 C 11,1 km/h (2 Bft)
03.09.2009 01:59 14,4 C 79 % 1003,5 hPa 0,0 l/m 7,8 km/h (2 Bft) S 175 0 min 0 W/m 10,8 C 13,6 C 7,8 km/h (2 Bft)
03.09.2009 02:04 14,4 C 80 % 1003,5 hPa 0,0 l/m 7,4 km/h (2 Bft) S-SW 195 0 min 0 W/m 11,0 C 13,8 C 7,4 km/h (2 Bft)
03.09.2009 02:09 14,4 C 79 % 1003,5 hPa 0,0 l/m 7,6 km/h (2 Bft) S 185 0 min 0 W/m 10,8 C 13,7 C 7,6 km/h (2 Bft)
03.09.2009 02:13 14,4 C 80 % 1003,5 hPa 0,0 l/m 7,4 km/h (2 Bft) S 170 0 min 0 W/m 11,0 C 13,8 C 7,4 km/h (2 Bft)
03.09.2009 02:19 14,4 C 80 % 1003,5 hPa 0,0 l/m 6,8 km/h (2 Bft) S 190 0 min 0 W/m 11,0 C 14,2 C 6,8 km/h (2 Bft)
03.09.2009 02:24 14,2 C 80 % 1003,5 hPa 0,0 l/m 9,2 km/h (2 Bft) S 180 0 min 0 W/m 10,8 C 12,6 C 9,2 km/h (2 Bft)
03.09.2009 02:29 14,2 C 80 % 1003,5 hPa 0,0 l/m 8,7 km/h (2 Bft) S 185 0 min 0 W/m 10,8 C 12,9 C 8,7 km/h (2 Bft)
03.09.2009 02:34 14,3 C 80 % 1003,5 hPa 0,0 l/m 9,3 km/h (2 Bft) S 185 0 min 0 W/m 10,9 C 12,7 C 9,3 km/h (2 Bft)
03.09.2009 02:39 14,4 C 80 % 1003,5 hPa 0,0 l/m 6,2 km/h (2 Bft) S-SW 195 0 min 0 W/m 11,0 C 14,4 C 6,2 km/h (2 Bft)
03.09.2009 02:44 14,4 C 80 % 1002,5 hPa 0,0 l/m 5,7 km/h (2 Bft) S 180 0 min 0 W/m 11,0 C 14,4 C 5,7 km/h (2 Bft)
03.09.2009 02:49 14,4 C 80 % 1002,5 hPa 0,0 l/m 3,9 km/h (1 Bft) S-SW 195 0 min 0 W/m 11,0 C 14,4 C 3,9 km/h (1 Bft)
03.09.2009 02:54 14,3 C 80 % 1002,5 hPa 0,0 l/m 5,9 km/h (2 Bft) S 175 0 min 0 W/m 10,9 C 14,3 C 5,9 km/h (2 Bft)
03.09.2009 02:59 14,3 C 80 % 1002,5 hPa 0,0 l/m 6,5 km/h (2 Bft) S 175 0 min 0 W/m 10,9 C 14,3 C 6,5 km/h (2 Bft)
03.09.2009 03:03 14,3 C 80 % 1002,5 hPa 0,0 l/m 7,2 km/h (2 Bft) S 175 0 min 0 W/m 10,9 C 13,8 C 7,2 km/h (2 Bft)
03.09.2009 03:09 14,3 C 80 % 1002,5 hPa 0,0 l/m 6,8 km/h (2 Bft) S-SW 195 0 min 0 W/m 10,9 C 14,1 C 6,8 km/h (2 Bft)
03.09.2009 03:14 14,4 C 80 % 1002,5 hPa 0,0 l/m 5,3 km/h (1 Bft) S 170 0 min 0 W/m 11,0 C 14,4 C 5,3 km/h (1 Bft)
03.09.2009 03:19 14,4 C 80 % 1002,5 hPa 0,0 l/m 5,7 km/h (2 Bft) S-SO 165 0 min 0 W/m 11,0 C 14,4 C 5,7 km/h (2 Bft)
03.09.2009 03:24 14,5 C 80 % 1001,5 hPa 0,0 l/m 7,4 km/h (2 Bft) S-SW 200 0 min 0 W/m 11,1 C 13,9 C 7,4 km/h (2 Bft)
03.09.2009 03:29 14,6 C 80 % 1001,5 hPa 0,0 l/m 7,6 km/h (2 Bft) S-SW 195 0 min 0 W/m 11,2 C 13,9 C 7,6 km/h (2 Bft)
03.09.2009 03:33 14,6 C 79 % 1001,5 hPa 0,0 l/m 6,7 km/h (2 Bft) S-SW 195 0 min 0 W/m 11,0 C 14,4 C 6,7 km/h (2 Bft)
03.09.2009 03:39 14,4 C 80 % 1001,5 hPa 0,0 l/m 9,2 km/h (2 Bft) S 170 0 min 0 W/m 11,0 C 12,8 C 9,2 km/h (2 Bft)
03.09.2009 03:44 14,3 C 80 % 1001,5 hPa 0,0 l/m 9,2 km/h (2 Bft) S 170 0 min 0 W/m 10,9 C 12,7 C 9,2 km/h (2 Bft)
03.09.2009 03:49 14,2 C 80 % 1001,5 hPa 0,0 l/m 8,6 km/h (2 Bft) S 180 0 min 0 W/m 10,8 C 12,9 C 8,6 km/h (2 Bft)
03.09.2009 03:54 14,0 C 80 % 1001,5 hPa 0,0 l/m 6,8 km/h (2 Bft) S 170 0 min 0 W/m 10,6 C 13,8 C 6,8 km/h (2 Bft)
03.09.2009 03:59 14,0 C 80 % 1001,5 hPa 0,0 l/m 8,5 km/h (2 Bft) S 175 0 min 0 W/m 10,6 C 12,8 C 8,5 km/h (2 Bft)
03.09.2009 04:04 14,1 C 80 % 1001,5 hPa 0,0 l/m 7,2 km/h (2 Bft) S 175 0 min 0 W/m 10,7 C 13,6 C 7,2 km/h (2 Bft)
03.09.2009 04:08 13,9 C 80 % 1000,5 hPa 0,0 l/m 9,0 km/h (2 Bft) S 180 0 min 0 W/m 10,5 C 12,4 C 9,0 km/h (2 Bft)
03.09.2009 04:14 13,8 C 80 % 1000,5 hPa 0,0 l/m 8,5 km/h (2 Bft) S 170 0 min 0 W/m 10,4 C 12,6 C 8,5 km/h (2 Bft)
03.09.2009 04:19 13,8 C 80 % 1000,5 hPa 0,0 l/m 9,0 km/h (2 Bft) S-SO 165 0 min 0 W/m 10,4 C 12,3 C 9,0 km/h (2 Bft)
03.09.2009 04:24 13,7 C 81 % 1000,5 hPa 0,0 l/m 8,6 km/h (2 Bft) S 175 0 min 0 W/m 10,5 C 12,4 C 8,6 km/h (2 Bft)
03.09.2009 04:29 13,8 C 81 % 1000,5 hPa 0,0 l/m 7,9 km/h (2 Bft) S 180 0 min 0 W/m 10,6 C 12,9 C 7,9 km/h (2 Bft)
03.09.2009 04:34 13,9 C 81 % 1000,5 hPa 0,0 l/m 9,0 km/h (2 Bft) S 185 0 min 0 W/m 10,7 C 12,4 C 9,0 km/h (2 Bft)
03.09.2009 04:39 13,8 C 80 % 1000,5 hPa 0,0 l/m 8,6 km/h (2 Bft) S 180 0 min 0 W/m 10,4 C 12,5 C 8,6 km/h (2 Bft)
03.09.2009 04:44 13,7 C 80 % 1000,5 hPa 0,0 l/m 9,8 km/h (2 Bft) S 175 0 min 0 W/m 10,3 C 11,8 C 9,8 km/h (2 Bft)
03.09.2009 04:49 13,8 C 81 % 1000,5 hPa 0,0 l/m 11,6 km/h (2 Bft) S 175 0 min 0 W/m 10,6 C 11,1 C 11,6 km/h (2 Bft)
03.09.2009 04:53 13,7 C 80 % 999,5 hPa 0,0 l/m 11,1 km/h (2 Bft) S-SO 160 0 min 0 W/m 10,3 C 11,2 C 11,1 km/h (2 Bft)
03.09.2009 04:59 13,6 C 81 % 999,5 hPa 0,0 l/m 10,1 km/h (2 Bft) S 170 0 min 0 W/m 10,4 C 11,5 C 10,1 km/h (2 Bft)
03.09.2009 05:04 13,6 C 81 % 999,5 hPa 0,0 l/m 8,3 km/h (2 Bft) S 180 0 min 0 W/m 10,4 C 12,5 C 8,3 km/h (2 Bft)
03.09.2009 05:09 13,6 C 81 % 999,5 hPa 0,0 l/m 11,1 km/h (2 Bft) S 180 0 min 0 W/m 10,4 C 11,1 C 11,1 km/h (2 Bft)
03.09.2009 05:14 13,6 C 81 % 999,5 hPa 0,0 l/m 8,1 km/h (2 Bft) S 180 0 min 0 W/m 10,4 C 12,6 C 8,1 km/h (2 Bft)
03.09.2009 05:19 13,6 C 81 % 999,5 hPa 0,0 l/m 11,1 km/h (2 Bft) S 190 0 min 0 W/m 10,4 C 11,1 C 11,1 km/h (2 Bft)
03.09.2009 05:24 13,7 C 82 % 999,5 hPa 0,0 l/m 8,1 km/h (2 Bft) S 190 0 min 0 W/m 10,7 C 12,7 C 8,1 km/h (2 Bft)
03.09.2009 05:28 13,6 C 81 % 998,5 hPa 0,0 l/m 7,8 km/h (2 Bft) S 185 0 min 0 W/m 10,4 C 12,7 C 7,8 km/h (2 Bft)
03.09.2009 05:34 13,6 C 81 % 998,5 hPa 0,0 l/m 10,8 km/h (2 Bft) S 175 0 min 0 W/m 10,4 C 11,2 C 10,8 km/h (2 Bft)
03.09.2009 05:39 13,7 C 81 % 998,5 hPa 0,0 l/m 8,5 km/h (2 Bft) S 175 0 min 0 W/m 10,5 C 12,5 C 8,5 km/h (2 Bft)
03.09.2009 05:44 13,6 C 81 % 998,5 hPa 0,0 l/m 8,5 km/h (2 Bft) S 175 0 min 0 W/m 10,4 C 12,4 C 8,5 km/h (2 Bft)
03.09.2009 05:49 13,7 C 81 % 998,5 hPa 0,0 l/m 10,3 km/h (2 Bft) S 170 0 min 0 W/m 10,5 C 11,5 C 10,3 km/h (2 Bft)
03.09.2009 05:54 13,6 C 82 % 998,5 hPa 0,0 l/m 10,3 km/h (2 Bft) S-SO 165 0 min 0 W/m 10,6 C 11,4 C 10,3 km/h (2 Bft)
03.09.2009 05:59 13,6 C 82 % 998,5 hPa 0,0 l/m 7,7 km/h (2 Bft) S 180 0 min 0 W/m 10,6 C 12,8 C 7,7 km/h (2 Bft)
03.09.2009 06:04 13,7 C 82 % 998,5 hPa 0,0 l/m 11,6 km/h (2 Bft) S 185 0 min 0 W/m 10,7 C 10,9 C 11,6 km/h (2 Bft)
03.09.2009 06:09 13,7 C 82 % 998,5 hPa 0,0 l/m 10,3 km/h (2 Bft) S 180 0 min 0 W/m 10,7 C 11,5 C 10,3 km/h (2 Bft)
03.09.2009 06:14 13,7 C 82 % 998,5 hPa 0,0 l/m 11,7 km/h (2 Bft) S-SO 165 0 min 0 W/m 10,7 C 10,9 C 11,7 km/h (2 Bft)
03.09.2009 06:19 13,6 C 82 % 997,5 hPa 0,0 l/m 9,4 km/h (2 Bft) S 175 0 min 0 W/m 10,6 C 11,9 C 9,4 km/h (2 Bft)
03.09.2009 06:24 13,6 C 82 % 997,5 hPa 0,0 l/m 8,5 km/h (2 Bft) S 170 0 min 0 W/m 10,6 C 12,4 C 8,5 km/h (2 Bft)
03.09.2009 06:29 13,6 C 83 % 997,5 hPa 0,0 l/m 10,4 km/h (2 Bft) S 170 0 min 0 W/m 10,8 C 11,4 C 10,4 km/h (2 Bft)
03.09.2009 06:34 13,6 C 83 % 997,5 hPa 0,3 l/m 8,8 km/h (2 Bft) S 170 0 min 0 W/m 10,8 C 12,2 C 8,8 km/h (2 Bft)
03.09.2009 06:39 13,6 C 83 % 997,5 hPa 0,0 l/m 8,4 km/h (2 Bft) S 175 0 min 0 W/m 10,8 C 12,4 C 8,4 km/h (2 Bft)
03.09.2009 06:43 13,5 C 84 % 997,5 hPa 0,0 l/m 9,2 km/h (2 Bft) S 170 0 min 0 W/m 10,8 C 11,9 C 9,2 km/h (2 Bft)
03.09.2009 06:49 13,4 C 84 % 997,5 hPa 0,0 l/m 10,2 km/h (2 Bft) S-SO 165 0 min 0 W/m 10,8 C 11,3 C 10,2 km/h (2 Bft)
03.09.2009 06:54 13,4 C 84 % 997,5 hPa 0,0 l/m 9,6 km/h (2 Bft) S-SO 165 0 min 0 W/m 10,8 C 11,6 C 9,6 km/h (2 Bft)
03.09.2009 06:59 13,4 C 85 % 997,5 hPa 0,0 l/m 9,2 km/h (2 Bft) S-SO 165 0 min 0 W/m 10,9 C 11,8 C 9,2 km/h (2 Bft)
03.09.2009 07:04 13,4 C 85 % 997,5 hPa 0,0 l/m 8,7 km/h (2 Bft) S-SO 160 0 min 0 W/m 10,9 C 12,0 C 8,7 km/h (2 Bft)
03.09.2009 07:09 13,4 C 85 % 997,5 hPa 0,0 l/m 9,4 km/h (2 Bft) S-SO 165 0 min 0 W/m 10,9 C 11,7 C 9,4 km/h (2 Bft)
03.09.2009 07:14 13,4 C 86 % 996,5 hPa 0,0 l/m 12,0 km/h (2 Bft) S 170 0 min 0 W/m 11,1 C 10,4 C 12,0 km/h (2 Bft)
03.09.2009 07:18 13,4 C 86 % 996,5 hPa 0,0 l/m 13,0 km/h (3 Bft) S 175 0 min 0 W/m 11,1 C 10,0 C 13,0 km/h (3 Bft)
03.09.2009 07:24 13,3 C 86 % 996,5 hPa 0,0 l/m 17,2 km/h (3 Bft) S-SO 165 0 min 0 W/m 11,0 C 8,4 C 17,2 km/h (3 Bft)
03.09.2009 07:29 13,4 C 86 % 996,5 hPa 0,0 l/m 10,3 km/h (2 Bft) S-SO 165 0 min 0 W/m 11,1 C 11,2 C 10,3 km/h (2 Bft)
03.09.2009 07:34 13,5 C 86 % 996,5 hPa 0,0 l/m 14,1 km/h (3 Bft) S-SO 165 0 min 0 W/m 11,2 C 9,7 C 14,1 km/h (3 Bft)
03.09.2009 07:39 13,6 C 86 % 996,5 hPa 0,0 l/m 14,8 km/h (3 Bft) S 175 0 min 0 W/m 11,3 C 9,6 C 14,8 km/h (3 Bft)
03.09.2009 07:44 13,6 C 86 % 996,5 hPa 0,0 l/m 13,6 km/h (3 Bft) S 170 0 min 0 W/m 11,3 C 10,0 C 13,6 km/h (3 Bft)
03.09.2009 07:49 13,7 C 86 % 996,5 hPa 0,0 l/m 10,6 km/h (2 Bft) S 170 0 min 0 W/m 11,4 C 11,4 C 10,6 km/h (2 Bft)
03.09.2009 07:54 13,7 C 86 % 996,5 hPa 0,0 l/m 12,6 km/h (3 Bft) S 180 0 min 0 W/m 11,4 C 10,5 C 12,6 km/h (3 Bft)
03.09.2009 07:59 13,7 C 86 % 996,5 hPa 0,0 l/m 19,6 km/h (3 Bft) S 175 0 min 0 W/m 11,4 C 8,2 C 19,6 km/h (3 Bft)
03.09.2009 08:03 13,7 C 86 % 996,5 hPa 0,0 l/m 15,2 km/h (3 Bft) S 170 0 min 0 W/m 11,4 C 9,5 C 15,2 km/h (3 Bft)
03.09.2009 08:09 13,7 C 86 % 996,5 hPa 0,0 l/m 18,1 km/h (3 Bft) S 180 0 min 0 W/m 11,4 C 8,6 C 18,1 km/h (3 Bft)
03.09.2009 08:14 13,8 C 86 % 995,5 hPa 0,0 l/m 17,5 km/h (3 Bft) S 180 0 min 0 W/m 11,5 C 8,9 C 17,5 km/h (3 Bft)
03.09.2009 08:19 13,8 C 86 % 995,5 hPa 0,0 l/m 16,5 km/h (3 Bft) S 175 0 min 0 W/m 11,5 C 9,2 C 16,5 km/h (3 Bft)
03.09.2009 08:24 13,8 C 86 % 995,5 hPa 0,0 l/m 14,1 km/h (3 Bft) S 170 0 min 0 W/m 11,5 C 10,1 C 14,1 km/h (3 Bft)
03.09.2009 08:29 13,8 C 86 % 995,5 hPa 0,0 l/m 18,2 km/h (3 Bft) S 175 0 min 0 W/m 11,5 C 8,7 C 18,2 km/h (3 Bft)
03.09.2009 08:33 13,8 C 86 % 995,5 hPa 0,0 l/m 19,0 km/h (3 Bft) S 185 0 min 0 W/m 11,5 C 8,5 C 19,0 km/h (3 Bft)
03.09.2009 08:39 13,8 C 86 % 995,5 hPa 0,0 l/m 18,8 km/h (3 Bft) S-SW 195 0 min 0 W/m 11,5 C 8,5 C 18,8 km/h (3 Bft)
03.09.2009 08:44 13,9 C 86 % 995,5 hPa 0,0 l/m 17,5 km/h (3 Bft) S 185 0 min 0 W/m 11,6 C 9,0 C 17,5 km/h (3 Bft)
03.09.2009 08:49 13,9 C 86 % 995,5 hPa 0,0 l/m 15,9 km/h (3 Bft) S 180 0 min 0 W/m 11,6 C 9,6 C 15,9 km/h (3 Bft)
03.09.2009 08:54 13,9 C 85 % 995,5 hPa 0,0 l/m 16,7 km/h (3 Bft) S 185 0 min 0 W/m 11,4 C 9,3 C 16,7 km/h (3 Bft)
03.09.2009 08:59 14,0 C 85 % 995,5 hPa 0,0 l/m 16,0 km/h (3 Bft) S 190 0 min 0 W/m 11,5 C 9,6 C 16,0 km/h (3 Bft)
03.09.2009 09:04 14,1 C 86 % 995,5 hPa 0,0 l/m 17,8 km/h (3 Bft) S 185 0 min 0 W/m 11,8 C 9,2 C 17,8 km/h (3 Bft)
03.09.2009 09:08 14,2 C 85 % 994,5 hPa 0,0 l/m 18,7 km/h (3 Bft) S 175 0 min 0 W/m 11,7 C 9,1 C 18,7 km/h (3 Bft)
03.09.2009 09:14 14,3 C 85 % 994,5 hPa 0,0 l/m 20,1 km/h (4 Bft) S 180 0 min 0 W/m 11,8 C 8,8 C 20,1 km/h (4 Bft)
03.09.2009 09:19 14,3 C 85 % 994,5 hPa 0,3 l/m 16,6 km/h (3 Bft) S 180 0 min 0 W/m 11,8 C 9,8 C 16,6 km/h (3 Bft)
03.09.2009 09:24 14,2 C 86 % 994,5 hPa 0,0 l/m 21,1 km/h (4 Bft) S 180 0 min 0 W/m 11,9 C 8,4 C 21,1 km/h (4 Bft)
03.09.2009 09:29 14,1 C 87 % 994,5 hPa 0,3 l/m 20,5 km/h (4 Bft) S 180 0 min 0 W/m 12,0 C 8,5 C 20,5 km/h (4 Bft)
03.09.2009 09:34 14,1 C 87 % 994,5 hPa 0,0 l/m 12,9 km/h (3 Bft) S 185 0 min 0 W/m 12,0 C 10,9 C 12,9 km/h (3 Bft)
03.09.2009 09:39 14,2 C 88 % 994,5 hPa 0,0 l/m 19,8 km/h (3 Bft) S-SW 195 0 min 0 W/m 12,2 C 8,8 C 19,8 km/h (3 Bft)
03.09.2009 09:43 14,2 C 88 % 994,5 hPa 0,0 l/m 17,8 km/h (3 Bft) S-SW 195 0 min 0 W/m 12,2 C 9,3 C 17,8 km/h (3 Bft)
03.09.2009 09:49 14,2 C 88 % 994,5 hPa 0,0 l/m 16,5 km/h (3 Bft) S-SW 195 0 min 0 W/m 12,2 C 9,7 C 16,5 km/h (3 Bft)
03.09.2009 09:54 14,2 C 88 % 994,5 hPa 0,3 l/m 15,9 km/h (3 Bft) S 185 0 min 0 W/m 12,2 C 9,9 C 15,9 km/h (3 Bft)
03.09.2009 09:59 14,3 C 89 % 994,5 hPa 0,0 l/m 12,6 km/h (3 Bft) S 180 0 min 0 W/m 12,5 C 11,2 C 12,6 km/h (3 Bft)
03.09.2009 10:04 14,3 C 89 % 994,5 hPa 0,0 l/m 19,0 km/h (3 Bft) S 190 0 min 0 W/m 12,5 C 9,1 C 19,0 km/h (3 Bft)
03.09.2009 10:09 14,4 C 89 % 994,5 hPa 0,0 l/m 17,8 km/h (3 Bft) S-SW 195 0 min 0 W/m 12,6 C 9,6 C 17,8 km/h (3 Bft)
03.09.2009 10:13 14,4 C 89 % 994,5 hPa 0,0 l/m 17,3 km/h (3 Bft) S 185 0 min 0 W/m 12,6 C 9,7 C 17,3 km/h (3 Bft)
03.09.2009 10:19 14,4 C 89 % 994,5 hPa 0,0 l/m 23,0 km/h (4 Bft) S 185 0 min 0 W/m 12,6 C 8,2 C 23,0 km/h (4 Bft)
03.09.2009 10:24 14,4 C 90 % 994,5 hPa 0,0 l/m 15,6 km/h (3 Bft) S 180 0 min 0 W/m 12,8 C 10,3 C 15,6 km/h (3 Bft)
03.09.2009 10:29 14,4 C 90 % 994,5 hPa 0,3 l/m 16,0 km/h (3 Bft) S 170 0 min 0 W/m 12,8 C 10,1 C 16,0 km/h (3 Bft)
03.09.2009 10:34 14,4 C 90 % 994,5 hPa 0,0 l/m 18,0 km/h (3 Bft) S 185 0 min 0 W/m 12,8 C 9,5 C 18,0 km/h (3 Bft)
03.09.2009 10:39 14,4 C 90 % 994,5 hPa 0,0 l/m 17,5 km/h (3 Bft) S 190 0 min 0 W/m 12,8 C 9,7 C 17,5 km/h (3 Bft)
03.09.2009 10:44 14,4 C 90 % 994,5 hPa 0,0 l/m 14,2 km/h (3 Bft) S-SW 195 0 min 0 W/m 12,8 C 10,7 C 14,2 km/h (3 Bft)
03.09.2009 10:49 14,5 C 90 % 994,5 hPa 0,0 l/m 13,0 km/h (3 Bft) S 185 0 min 0 W/m 12,9 C 11,3 C 13,0 km/h (3 Bft)
03.09.2009 10:53 14,4 C 90 % 994,5 hPa 0,0 l/m 17,8 km/h (3 Bft) S 190 0 min 0 W/m 12,8 C 9,6 C 17,8 km/h (3 Bft)
03.09.2009 10:59 14,6 C 90 % 994,5 hPa 0,0 l/m 15,0 km/h (3 Bft) S-SW 205 0 min 0 W/m 13,0 C 10,7 C 15,0 km/h (3 Bft)
03.09.2009 11:04 14,8 C 91 % 993,5 hPa 0,0 l/m 18,3 km/h (3 Bft) S-SW 195 0 min 0 W/m 13,3 C 9,9 C 18,3 km/h (3 Bft)
03.09.2009 11:09 15,0 C 91 % 993,5 hPa 0,0 l/m 17,3 km/h (3 Bft) S 190 0 min 0 W/m 13,5 C 10,5 C 17,3 km/h (3 Bft)
03.09.2009 11:14 15,0 C 91 % 993,5 hPa 0,0 l/m 19,3 km/h (3 Bft) S-SW 205 0 min 0 W/m 13,5 C 9,9 C 19,3 km/h (3 Bft)
03.09.2009 11:18 15,3 C 91 % 993,5 hPa 0,0 l/m 17,8 km/h (3 Bft) S 190 0 min 0 W/m 13,8 C 10,7 C 17,8 km/h (3 Bft)
03.09.2009 11:24 15,9 C 91 % 993,5 hPa 0,0 l/m 17,5 km/h (3 Bft) S-SW 200 0 min 0 W/m 14,4 C 11,6 C 17,5 km/h (3 Bft)
03.09.2009 11:29 16,1 C 91 % 993,5 hPa 0,0 l/m 23,1 km/h (4 Bft) S 180 0 min 0 W/m 14,6 C 10,5 C 23,1 km/h (4 Bft)
03.09.2009 11:34 16,0 C 90 % 993,5 hPa 0,9 l/m 21,5 km/h (4 Bft) S-SW 195 0 min 0 W/m 14,4 C 10,7 C 21,5 km/h (4 Bft)
03.09.2009 11:39 15,7 C 89 % 993,5 hPa 0,6 l/m 20,0 km/h (4 Bft) S-SW 200 0 min 0 W/m 13,9 C 10,7 C 20,0 km/h (4 Bft)
03.09.2009 11:44 15,7 C 89 % 993,5 hPa 0,3 l/m 18,5 km/h (3 Bft) S-SW 205 0 min 0 W/m 13,9 C 11,0 C 18,5 km/h (3 Bft)
03.09.2009 11:49 15,8 C 90 % 993,5 hPa 0,0 l/m 17,9 km/h (3 Bft) SW 215 0 min 0 W/m 14,2 C 11,3 C 17,9 km/h (3 Bft)
03.09.2009 11:54 16,1 C 90 % 993,5 hPa 0,0 l/m 17,6 km/h (3 Bft) S-SW 195 0 min 0 W/m 14,5 C 11,8 C 17,6 km/h (3 Bft)
03.09.2009 11:58 16,3 C 90 % 993,5 hPa 0,0 l/m 15,2 km/h (3 Bft) S-SW 205 0 min 0 W/m 14,7 C 12,7 C 15,2 km/h (3 Bft)
03.09.2009 12:04 16,4 C 90 % 993,5 hPa 0,0 l/m 15,3 km/h (3 Bft) S 190 0 min 0 W/m 14,8 C 12,8 C 15,3 km/h (3 Bft)
03.09.2009 12:09 16,8 C 90 % 993,5 hPa 0,0 l/m 13,8 km/h (3 Bft) S 180 0 min 0 W/m 15,1 C 13,7 C 13,8 km/h (3 Bft)
03.09.2009 12:14 16,9 C 89 % 993,5 hPa 0,0 l/m 17,0 km/h (3 Bft) S-SW 195 0 min 0 W/m 15,1 C 12,9 C 17,0 km/h (3 Bft)
03.09.2009 12:19 17,1 C 89 % 993,5 hPa 0,0 l/m 12,1 km/h (2 Bft) S 185 0 min 0 W/m 15,3 C 14,7 C 12,1 km/h (2 Bft)
03.09.2009 12:24 17,1 C 88 % 992,5 hPa 0,0 l/m 16,8 km/h (3 Bft) S-SW 195 0 min 0 W/m 15,1 C 13,2 C 16,8 km/h (3 Bft)
03.09.2009 12:28 17,3 C 88 % 992,5 hPa 0,0 l/m 18,3 km/h (3 Bft) S-SW 205 0 min 0 W/m 15,3 C 13,1 C 18,3 km/h (3 Bft)
03.09.2009 12:34 17,2 C 88 % 992,5 hPa 0,0 l/m 14,5 km/h (3 Bft) S-SW 205 0 min 0 W/m 15,2 C 14,0 C 14,5 km/h (3 Bft)
03.09.2009 12:39 17,0 C 87 % 992,5 hPa 0,0 l/m 14,5 km/h (3 Bft) S-SW 195 0 min 0 W/m 14,8 C 13,8 C 14,5 km/h (3 Bft)
03.09.2009 12:44 16,7 C 87 % 992,5 hPa 0,9 l/m 19,8 km/h (3 Bft) S-SW 205 0 min 0 W/m 14,5 C 12,0 C 19,8 km/h (3 Bft)
03.09.2009 12:49 16,5 C 87 % 992,5 hPa 0,6 l/m 14,3 km/h (3 Bft) SW 225 0 min 0 W/m 14,3 C 13,2 C 14,3 km/h (3 Bft)
03.09.2009 12:54 16,2 C 88 % 992,5 hPa 0,3 l/m 24,7 km/h (4 Bft) W-SW 245 0 min 0 W/m 14,2 C 10,3 C 24,7 km/h (4 Bft)
03.09.2009 12:59 16,0 C 87 % 992,5 hPa 0,0 l/m 30,4 km/h (5 Bft) W-SW 245 0 min 0 W/m 13,8 C 9,0 C 30,4 km/h (5 Bft)
03.09.2009 13:04 16,0 C 88 % 992,5 hPa 0,0 l/m 22,1 km/h (4 Bft) W-SW 250 0 min 0 W/m 14,0 C 10,6 C 22,1 km/h (4 Bft)
03.09.2009 13:09 15,9 C 88 % 992,5 hPa 0,0 l/m 18,7 km/h (3 Bft) W-SW 250 0 min 0 W/m 13,9 C 11,2 C 18,7 km/h (3 Bft)
03.09.2009 13:14 16,0 C 88 % 992,5 hPa 0,0 l/m 19,8 km/h (3 Bft) SW 235 0 min 0 W/m 14,0 C 11,1 C 19,8 km/h (3 Bft)
03.09.2009 13:19 16,0 C 88 % 992,5 hPa 0,0 l/m 15,0 km/h (3 Bft) W-SW 245 0 min 0 W/m 14,0 C 12,4 C 15,0 km/h (3 Bft)
03.09.2009 13:24 16,4 C 88 % 992,5 hPa 0,0 l/m 25,3 km/h (4 Bft) W-SW 240 0 min 0 W/m 14,4 C 10,4 C 25,3 km/h (4 Bft)
03.09.2009 13:29 16,9 C 88 % 992,5 hPa 0,0 l/m 16,8 km/h (3 Bft) W-SW 250 0 min 0 W/m 14,9 C 13,0 C 16,8 km/h (3 Bft)
03.09.2009 13:33 17,6 C 86 % 992,5 hPa 0,0 l/m 24,6 km/h (4 Bft) W-SW 250 0 min 0 W/m 15,2 C 12,2 C 24,6 km/h (4 Bft)
03.09.2009 13:39 17,8 C 86 % 992,5 hPa 0,0 l/m 21,5 km/h (4 Bft) W-SW 255 0 min 0 W/m 15,4 C 13,1 C 21,5 km/h (4 Bft)
03.09.2009 13:44 17,6 C 80 % 992,5 hPa 0,0 l/m 36,0 km/h (5 Bft) W 260 0 min 0 W/m 14,1 C 10,6 C 36,0 km/h (5 Bft)
03.09.2009 13:49 17,5 C 81 % 992,5 hPa 0,0 l/m 32,4 km/h (5 Bft) W-SW 250 0 min 0 W/m 14,2 C 10,9 C 32,4 km/h (5 Bft)
03.09.2009 13:54 17,4 C 81 % 992,5 hPa 0,0 l/m 33,9 km/h (5 Bft) W-SW 245 0 min 0 W/m 14,1 C 10,5 C 33,9 km/h (5 Bft)
03.09.2009 13:59 17,2 C 78 % 992,5 hPa 0,0 l/m 34,4 km/h (5 Bft) W-SW 250 0 min 0 W/m 13,3 C 10,2 C 34,4 km/h (5 Bft)
03.09.2009 14:04 17,2 C 76 % 992,5 hPa 0,0 l/m 41,6 km/h (6 Bft) W 260 0 min 0 W/m 12,9 C 9,4 C 41,6 km/h (6 Bft)
03.09.2009 14:09 17,5 C 77 % 992,5 hPa 0,0 l/m 37,9 km/h (6 Bft) W 265 0 min 0 W/m 13,4 C 10,2 C 37,9 km/h (6 Bft)
03.09.2009 14:14 18,1 C 76 % 992,5 hPa 0,0 l/m 35,2 km/h (5 Bft) W-SW 255 0 min 0 W/m 13,8 C 11,4 C 35,2 km/h (5 Bft)
03.09.2009 14:19 18,3 C 74 % 992,5 hPa 0,0 l/m 36,7 km/h (5 Bft) W 260 0 min 0 W/m 13,6 C 11,5 C 36,7 km/h (5 Bft)
03.09.2009 14:24 18,4 C 71 % 992,5 hPa 0,0 l/m 39,0 km/h (6 Bft) W 260 0 min 0 W/m 13,0 C 11,4 C 39,0 km/h (6 Bft)
03.09.2009 14:29 18,4 C 71 % 992,5 hPa 0,0 l/m 43,8 km/h (6 Bft) W 260 0 min 0 W/m 13,0 C 11,0 C 43,8 km/h (6 Bft)
03.09.2009 14:34 17,8 C 74 % 992,5 hPa 0,0 l/m 39,4 km/h (6 Bft) W-SW 255 0 min 0 W/m 13,1 C 10,5 C 39,4 km/h (6 Bft)
03.09.2009 14:39 17,7 C 74 % 992,5 hPa 0,0 l/m 43,6 km/h (6 Bft) W-SW 250 0 min 0 W/m 13,0 C 10,0 C 43,6 km/h (6 Bft)
03.09.2009 14:43 17,8 C 74 % 992,5 hPa 0,0 l/m 35,1 km/h (5 Bft) W-SW 255 0 min 0 W/m 13,1 C 11,0 C 35,1 km/h (5 Bft)
03.09.2009 14:49 17,8 C 72 % 992,5 hPa 0,0 l/m 42,8 km/h (6 Bft) W-SW 255 0 min 0 W/m 12,7 C 10,2 C 42,8 km/h (6 Bft)
03.09.2009 14:54 17,7 C 73 % 992,5 hPa 0,0 l/m 34,3 km/h (5 Bft) W 260 0 min 0 W/m 12,8 C 10,9 C 34,3 km/h (5 Bft)
03.09.2009 14:59 17,7 C 73 % 992,5 hPa 0,0 l/m 37,2 km/h (5 Bft) W-SW 255 0 min 0 W/m 12,8 C 10,6 C 37,2 km/h (5 Bft)
03.09.2009 15:04 17,8 C 74 % 992,5 hPa 0,0 l/m 36,8 km/h (5 Bft) W-SW 250 0 min 0 W/m 13,1 C 10,8 C 36,8 km/h (5 Bft)
03.09.2009 15:08 17,9 C 72 % 992,5 hPa 0,0 l/m 34,8 km/h (5 Bft) W 260 0 min 0 W/m 12,8 C 11,2 C 34,8 km/h (5 Bft)
03.09.2009 15:14 17,8 C 72 % 992,5 hPa 0,0 l/m 38,8 km/h (6 Bft) W-SW 250 0 min 0 W/m 12,7 C 10,6 C 38,8 km/h (6 Bft)
03.09.2009 15:19 17,7 C 72 % 992,5 hPa 0,0 l/m 45,2 km/h (6 Bft) W 270 0 min 0 W/m 12,6 C 9,9 C 45,2 km/h (6 Bft)
03.09.2009 15:24 17,4 C 72 % 992,5 hPa 0,0 l/m 30,7 km/h (5 Bft) W-SW 255 0 min 0 W/m 12,3 C 11,0 C 30,7 km/h (5 Bft)
03.09.2009 15:29 17,3 C 73 % 992,5 hPa 0,0 l/m 37,3 km/h (5 Bft) W 260 0 min 0 W/m 12,4 C 10,0 C 37,3 km/h (5 Bft)
03.09.2009 15:34 17,4 C 73 % 992,5 hPa 0,0 l/m 37,3 km/h (5 Bft) W-SW 245 0 min 0 W/m 12,5 C 10,1 C 37,3 km/h (5 Bft)
03.09.2009 15:39 17,4 C 74 % 992,5 hPa 0,0 l/m 26,3 km/h (4 Bft) W-SW 255 0 min 0 W/m 12,7 C 11,6 C 26,3 km/h (4 Bft)
03.09.2009 15:44 17,0 C 76 % 992,5 hPa 0,3 l/m 31,7 km/h (5 Bft) W-SW 255 0 min 0 W/m 12,7 C 10,3 C 31,7 km/h (5 Bft)
03.09.2009 15:48 16,9 C 77 % 992,5 hPa 0,0 l/m 35,3 km/h (5 Bft) W 260 0 min 0 W/m 12,8 C 9,6 C 35,3 km/h (5 Bft)
03.09.2009 15:54 16,6 C 77 % 992,5 hPa 0,0 l/m 39,9 km/h (6 Bft) W 260 0 min 0 W/m 12,5 C 8,7 C 39,9 km/h (6 Bft)
03.09.2009 15:59 16,0 C 80 % 992,5 hPa 0,3 l/m 42,8 km/h (6 Bft) W 265 0 min 0 W/m 12,5 C 7,5 C 42,8 km/h (6 Bft)
03.09.2009 16:04 16,0 C 82 % 992,5 hPa 0,0 l/m 36,1 km/h (5 Bft) W 260 0 min 0 W/m 12,9 C 8,2 C 36,1 km/h (5 Bft)
03.09.2009 16:09 16,5 C 81 % 992,5 hPa 0,0 l/m 35,9 km/h (5 Bft) W-SW 255 0 min 0 W/m 13,2 C 9,0 C 35,9 km/h (5 Bft)
03.09.2009 16:13 16,8 C 79 % 992,5 hPa 0,0 l/m 35,9 km/h (5 Bft) W-SW 255 0 min 0 W/m 13,1 C 9,4 C 35,9 km/h (5 Bft)
03.09.2009 16:19 16,8 C 78 % 992,5 hPa 0,0 l/m 37,7 km/h (5 Bft) W-SW 255 0 min 0 W/m 12,9 C 9,2 C 37,7 km/h (5 Bft)
03.09.2009 16:24 17,1 C 79 % 992,5 hPa 0,0 l/m 28,5 km/h (5 Bft) W-SW 250 0 min 0 W/m 13,4 C 10,9 C 28,5 km/h (5 Bft)
03.09.2009 16:29 17,1 C 79 % 992,5 hPa 0,0 l/m 35,0 km/h (5 Bft) W 260 0 min 0 W/m 13,4 C 10,0 C 35,0 km/h (5 Bft)
03.09.2009 16:34 17,3 C 73 % 992,5 hPa 0,0 l/m 45,7 km/h (6 Bft) W 270 0 min 0 W/m 12,4 C 9,2 C 45,7 km/h (6 Bft)
03.09.2009 16:39 17,2 C 71 % 992,5 hPa 0,0 l/m 46,4 km/h (6 Bft) W 265 0 min 0 W/m 11,9 C 9,0 C 46,4 km/h (6 Bft)
03.09.2009 16:43 17,0 C 73 % 992,5 hPa 0,0 l/m 53,0 km/h (7 Bft) W 260 0 min 0 W/m 12,1 C 8,2 C 53,0 km/h (7 Bft)
03.09.2009 16:49 16,8 C 76 % 992,5 hPa 0,0 l/m 37,0 km/h (5 Bft) W 260 0 min 0 W/m 12,5 C 9,3 C 37,0 km/h (5 Bft)
03.09.2009 16:54 16,5 C 76 % 992,5 hPa 0,0 l/m 42,4 km/h (6 Bft) W-SW 255 0 min 0 W/m 12,3 C 8,3 C 42,4 km/h (6 Bft)
03.09.2009 16:59 16,0 C 80 % 992,5 hPa 0,0 l/m 49,2 km/h (7 Bft) W 270 0 min 0 W/m 12,5 C 7,0 C 49,2 km/h (7 Bft)
03.09.2009 17:04 15,6 C 81 % 993,5 hPa 0,0 l/m 38,6 km/h (6 Bft) W 270 0 min 0 W/m 12,3 C 7,4 C 38,6 km/h (6 Bft)
03.09.2009 17:08 15,4 C 81 % 993,5 hPa 0,0 l/m 43,2 km/h (6 Bft) W 260 0 min 0 W/m 12,2 C 6,6 C 43,2 km/h (6 Bft)
03.09.2009 17:13 15,4 C 82 % 993,5 hPa 0,0 l/m 43,2 km/h (6 Bft) W 260 0 min 0 W/m 12,3 C 6,6 C 43,2 km/h (6 Bft)
03.09.2009 17:19 15,5 C 81 % 993,5 hPa 0,0 l/m 50,5 km/h (7 Bft) W 265 0 min 0 W/m 12,3 C 6,1 C 50,5 km/h (7 Bft)
03.09.2009 17:24 15,5 C 80 % 993,5 hPa 0,0 l/m 47,3 km/h (6 Bft) W 260 0 min 0 W/m 12,1 C 6,3 C 47,3 km/h (6 Bft)
03.09.2009 17:29 15,5 C 79 % 993,5 hPa 0,0 l/m 43,4 km/h (6 Bft) W-SW 255 0 min 0 W/m 11,9 C 6,7 C 43,4 km/h (6 Bft)
03.09.2009 17:34 15,5 C 81 % 993,5 hPa 0,0 l/m 36,4 km/h (5 Bft) W 260 0 min 0 W/m 12,3 C 7,5 C 36,4 km/h (5 Bft)
03.09.2009 17:39 15,4 C 79 % 993,5 hPa 0,0 l/m 52,5 km/h (7 Bft) W 265 0 min 0 W/m 11,8 C 5,8 C 52,5 km/h (7 Bft)
03.09.2009 17:44 15,5 C 79 % 993,5 hPa 0,0 l/m 52,2 km/h (7 Bft) W 265 0 min 0 W/m 11,9 C 6,0 C 52,2 km/h (7 Bft)
03.09.2009 17:48 15,5 C 79 % 993,5 hPa 0,0 l/m 51,2 km/h (7 Bft) W 265 0 min 0 W/m 11,9 C 6,0 C 51,2 km/h (7 Bft)
03.09.2009 17:54 15,4 C 78 % 993,5 hPa 0,3 l/m 58,6 km/h (7 Bft) W 265 0 min 0 W/m 11,6 C 5,4 C 58,6 km/h (7 Bft)
03.09.2009 17:59 15,5 C 79 % 993,5 hPa 0,0 l/m 39,1 km/h (6 Bft) W 265 0 min 0 W/m 11,9 C 7,2 C 39,1 km/h (6 Bft)
03.09.2009 18:04 15,6 C 78 % 993,5 hPa 0,0 l/m 46,0 km/h (6 Bft) W 275 0 min 0 W/m 11,8 C 6,6 C 46,0 km/h (6 Bft)
03.09.2009 18:09 15,6 C 78 % 993,5 hPa 0,0 l/m 54,0 km/h (7 Bft) W 265 0 min 0 W/m 11,8 C 6,0 C 54,0 km/h (7 Bft)
03.09.2009 18:14 15,6 C 77 % 993,5 hPa 0,0 l/m 51,3 km/h (7 Bft) W 270 0 min 0 W/m 11,6 C 6,2 C 51,3 km/h (7 Bft)
03.09.2009 18:19 15,5 C 79 % 993,5 hPa 0,0 l/m 59,3 km/h (7 Bft) W 265 0 min 0 W/m 11,9 C 5,5 C 59,3 km/h (7 Bft)
03.09.2009 18:24 15,5 C 79 % 993,5 hPa 0,0 l/m 52,0 km/h (7 Bft) W 270 0 min 0 W/m 11,9 C 6,0 C 52,0 km/h (7 Bft)
03.09.2009 18:28 15,0 C 83 % 993,5 hPa 0,0 l/m 52,2 km/h (7 Bft) W 270 0 min 0 W/m 12,1 C 5,2 C 52,2 km/h (7 Bft)
03.09.2009 18:34 15,0 C 84 % 993,5 hPa 0,0 l/m 44,2 km/h (6 Bft) W 275 0 min 0 W/m 12,3 C 5,9 C 44,2 km/h (6 Bft)
03.09.2009 18:39 15,0 C 84 % 993,5 hPa 0,0 l/m 40,3 km/h (6 Bft) W 270 0 min 0 W/m 12,3 C 6,3 C 40,3 km/h (6 Bft)
03.09.2009 18:44 15,0 C 82 % 993,5 hPa 0,0 l/m 44,0 km/h (6 Bft) W 265 0 min 0 W/m 12,0 C 5,9 C 44,0 km/h (6 Bft)
03.09.2009 18:49 15,0 C 82 % 993,5 hPa 0,0 l/m 47,8 km/h (6 Bft) W 265 0 min 0 W/m 12,0 C 5,5 C 47,8 km/h (6 Bft)
03.09.2009 18:54 15,0 C 82 % 993,5 hPa 0,0 l/m 40,5 km/h (6 Bft) W 265 0 min 0 W/m 12,0 C 6,3 C 40,5 km/h (6 Bft)
03.09.2009 18:59 15,0 C 82 % 993,5 hPa 0,0 l/m 41,9 km/h (6 Bft) W 275 0 min 0 W/m 12,0 C 6,1 C 41,9 km/h (6 Bft)
03.09.2009 19:03 15,0 C 84 % 993,5 hPa 0,0 l/m 41,4 km/h (6 Bft) W 270 0 min 0 W/m 12,3 C 6,2 C 41,4 km/h (6 Bft)
03.09.2009 19:09 14,7 C 85 % 993,5 hPa 0,0 l/m 40,8 km/h (6 Bft) W 270 0 min 0 W/m 12,2 C 5,8 C 40,8 km/h (6 Bft)
03.09.2009 19:14 14,6 C 84 % 993,5 hPa 0,0 l/m 46,6 km/h (6 Bft) W 270 0 min 0 W/m 11,9 C 5,0 C 46,6 km/h (6 Bft)
03.09.2009 19:19 14,7 C 84 % 993,5 hPa 0,0 l/m 44,1 km/h (6 Bft) W 270 0 min 0 W/m 12,0 C 5,4 C 44,1 km/h (6 Bft)
03.09.2009 19:24 14,8 C 82 % 993,5 hPa 0,0 l/m 38,3 km/h (6 Bft) W 270 0 min 0 W/m 11,8 C 6,2 C 38,3 km/h (6 Bft)
03.09.2009 19:28 15,0 C 81 % 993,5 hPa 0,0 l/m 49,1 km/h (7 Bft) W 270 0 min 0 W/m 11,8 C 5,4 C 49,1 km/h (7 Bft)
03.09.2009 19:34 15,0 C 81 % 993,5 hPa 0,0 l/m 49,7 km/h (7 Bft) W 270 0 min 0 W/m 11,8 C 5,4 C 49,7 km/h (7 Bft)
03.09.2009 19:39 15,0 C 81 % 993,5 hPa 0,0 l/m 43,8 km/h (6 Bft) W 260 0 min 0 W/m 11,8 C 5,9 C 43,8 km/h (6 Bft)
03.09.2009 19:44 15,0 C 79 % 993,5 hPa 0,0 l/m 40,7 km/h (6 Bft) W 270 0 min 0 W/m 11,4 C 6,2 C 40,7 km/h (6 Bft)
03.09.2009 19:49 15,0 C 78 % 993,5 hPa 0,0 l/m 43,3 km/h (6 Bft) W 265 0 min 0 W/m 11,2 C 6,0 C 43,3 km/h (6 Bft)
03.09.2009 19:54 15,0 C 79 % 993,5 hPa 0,0 l/m 40,8 km/h (6 Bft) W-NW 300 0 min 0 W/m 11,4 C 6,2 C 40,8 km/h (6 Bft)
03.09.2009 19:59 14,1 C 84 % 994,5 hPa 0,6 l/m 39,2 km/h (6 Bft) W-NW 290 0 min 0 W/m 11,4 C 5,1 C 39,2 km/h (6 Bft)
03.09.2009 20:03 13,5 C 86 % 994,5 hPa 0,6 l/m 41,9 km/h (6 Bft) W 265 0 min 0 W/m 11,2 C 3,9 C 41,9 km/h (6 Bft)
03.09.2009 20:09 13,6 C 86 % 994,5 hPa 0,0 l/m 30,6 km/h (5 Bft) W 275 0 min 0 W/m 11,3 C 5,6 C 30,6 km/h (5 Bft)
03.09.2009 20:14 13,7 C 87 % 994,5 hPa 0,0 l/m 33,1 km/h (5 Bft) W 280 0 min 0 W/m 11,6 C 5,3 C 33,1 km/h (5 Bft)
03.09.2009 20:19 13,8 C 86 % 994,5 hPa 0,0 l/m 40,2 km/h (6 Bft) W 265 0 min 0 W/m 11,5 C 4,5 C 40,2 km/h (6 Bft)
03.09.2009 20:24 14,0 C 85 % 994,5 hPa 0,0 l/m 31,5 km/h (5 Bft) W 270 0 min 0 W/m 11,5 C 6,0 C 31,5 km/h (5 Bft)
03.09.2009 20:28 14,0 C 84 % 994,5 hPa 0,0 l/m 37,4 km/h (5 Bft) W 265 0 min 0 W/m 11,3 C 5,2 C 37,4 km/h (5 Bft)
03.09.2009 20:34 14,4 C 81 % 994,5 hPa 0,0 l/m 39,4 km/h (6 Bft) W 265 0 min 0 W/m 11,2 C 5,5 C 39,4 km/h (6 Bft)
03.09.2009 20:39 14,5 C 79 % 994,5 hPa 0,0 l/m 36,2 km/h (5 Bft) W-SW 255 0 min 0 W/m 10,9 C 6,0 C 36,2 km/h (5 Bft)
03.09.2009 20:44 14,6 C 78 % 994,5 hPa 0,0 l/m 33,3 km/h (5 Bft) W 265 0 min 0 W/m 10,8 C 6,6 C 33,3 km/h (5 Bft)
03.09.2009 20:49 14,7 C 77 % 994,5 hPa 0,0 l/m 43,8 km/h (6 Bft) W 265 0 min 0 W/m 10,7 C 5,5 C 43,8 km/h (6 Bft)
03.09.2009 20:54 14,8 C 74 % 994,5 hPa 0,0 l/m 45,0 km/h (6 Bft) W 270 0 min 0 W/m 10,2 C 5,5 C 45,0 km/h (6 Bft)
03.09.2009 20:59 14,8 C 75 % 994,5 hPa 0,0 l/m 46,1 km/h (6 Bft) W 270 0 min 0 W/m 10,4 C 5,4 C 46,1 km/h (6 Bft)
03.09.2009 21:03 14,6 C 77 % 994,5 hPa 0,0 l/m 32,6 km/h (5 Bft) W 270 0 min 0 W/m 10,6 C 6,7 C 32,6 km/h (5 Bft)
03.09.2009 21:09 14,5 C 78 % 994,5 hPa 0,0 l/m 34,8 km/h (5 Bft) W 270 0 min 0 W/m 10,7 C 6,2 C 34,8 km/h (5 Bft)
03.09.2009 21:14 14,5 C 78 % 994,5 hPa 0,0 l/m 39,8 km/h (6 Bft) W 260 0 min 0 W/m 10,7 C 5,6 C 39,8 km/h (6 Bft)
03.09.2009 21:19 14,8 C 76 % 994,5 hPa 0,0 l/m 43,9 km/h (6 Bft) W 270 0 min 0 W/m 10,6 C 5,6 C 43,9 km/h (6 Bft)
03.09.2009 21:24 15,0 C 74 % 994,5 hPa 0,0 l/m 45,3 km/h (6 Bft) W 265 0 min 0 W/m 10,4 C 5,8 C 45,3 km/h (6 Bft)
03.09.2009 21:29 15,0 C 74 % 994,5 hPa 0,0 l/m 35,8 km/h (5 Bft) W 265 0 min 0 W/m 10,4 C 6,8 C 35,8 km/h (5 Bft)
03.09.2009 21:34 15,0 C 74 % 994,5 hPa 0,0 l/m 28,2 km/h (5 Bft) W 270 0 min 0 W/m 10,4 C 8,0 C 28,2 km/h (5 Bft)
03.09.2009 21:39 15,0 C 74 % 994,5 hPa 0,0 l/m 39,1 km/h (6 Bft) W 260 0 min 0 W/m 10,4 C 6,4 C 39,1 km/h (6 Bft)
03.09.2009 21:43 15,0 C 75 % 994,5 hPa 0,0 l/m 39,3 km/h (6 Bft) W 260 0 min 0 W/m 10,6 C 6,4 C 39,3 km/h (6 Bft)
03.09.2009 21:49 15,0 C 74 % 994,5 hPa 0,0 l/m 43,4 km/h (6 Bft) W 265 0 min 0 W/m 10,4 C 5,9 C 43,4 km/h (6 Bft)
03.09.2009 21:54 15,0 C 74 % 994,5 hPa 0,0 l/m 44,7 km/h (6 Bft) W 265 0 min 0 W/m 10,4 C 5,8 C 44,7 km/h (6 Bft)
03.09.2009 21:59 15,0 C 73 % 994,5 hPa 0,0 l/m 50,8 km/h (7 Bft) W 265 0 min 0 W/m 10,2 C 5,3 C 50,8 km/h (7 Bft)
03.09.2009 22:04 15,0 C 72 % 994,5 hPa 0,0 l/m 45,5 km/h (6 Bft) W 270 0 min 0 W/m 10,0 C 5,7 C 45,5 km/h (6 Bft)
03.09.2009 22:08 15,0 C 73 % 994,5 hPa 0,0 l/m 42,5 km/h (6 Bft) W 265 0 min 0 W/m 10,2 C 6,0 C 42,5 km/h (6 Bft)
03.09.2009 22:14 14,8 C 73 % 994,5 hPa 0,0 l/m 47,5 km/h (6 Bft) W 275 0 min 0 W/m 10,0 C 5,3 C 47,5 km/h (6 Bft)
03.09.2009 22:19 14,6 C 73 % 994,5 hPa 0,0 l/m 43,4 km/h (6 Bft) W 270 0 min 0 W/m 9,8 C 5,3 C 43,4 km/h (6 Bft)
03.09.2009 22:24 14,5 C 73 % 994,5 hPa 0,0 l/m 35,4 km/h (5 Bft) W 275 0 min 0 W/m 9,7 C 6,2 C 35,4 km/h (5 Bft)
03.09.2009 22:29 14,5 C 74 % 994,5 hPa 0,0 l/m 43,7 km/h (6 Bft) W 270 0 min 0 W/m 9,9 C 5,2 C 43,7 km/h (6 Bft)
03.09.2009 22:34 14,5 C 75 % 994,5 hPa 0,0 l/m 33,1 km/h (5 Bft) W 270 0 min 0 W/m 10,1 C 6,5 C 33,1 km/h (5 Bft)
03.09.2009 22:39 14,4 C 75 % 994,5 hPa 0,0 l/m 34,8 km/h (5 Bft) W 265 0 min 0 W/m 10,0 C 6,1 C 34,8 km/h (5 Bft)
03.09.2009 22:43 14,4 C 76 % 994,5 hPa 0,0 l/m 35,8 km/h (5 Bft) W 270 0 min 0 W/m 10,2 C 6,0 C 35,8 km/h (5 Bft)
03.09.2009 22:49 14,4 C 75 % 994,5 hPa 0,0 l/m 49,5 km/h (7 Bft) W-NW 285 0 min 0 W/m 10,0 C 4,5 C 49,5 km/h (7 Bft)
03.09.2009 22:54 14,6 C 75 % 994,5 hPa 0,0 l/m 43,3 km/h (6 Bft) W 275 0 min 0 W/m 10,2 C 5,4 C 43,3 km/h (6 Bft)
03.09.2009 22:59 14,5 C 76 % 994,5 hPa 0,0 l/m 44,4 km/h (6 Bft) W 270 0 min 0 W/m 10,3 C 5,1 C 44,4 km/h (6 Bft)
03.09.2009 23:04 14,4 C 78 % 994,5 hPa 0,0 l/m 39,5 km/h (6 Bft) W 270 0 min 0 W/m 10,6 C 5,5 C 39,5 km/h (6 Bft)
03.09.2009 23:09 14,1 C 79 % 994,5 hPa 0,0 l/m 39,4 km/h (6 Bft) W 275 0 min 0 W/m 10,5 C 5,0 C 39,4 km/h (6 Bft)
03.09.2009 23:14 14,0 C 78 % 994,5 hPa 0,0 l/m 46,0 km/h (6 Bft) W 270 0 min 0 W/m 10,2 C 4,2 C 46,0 km/h (6 Bft)
03.09.2009 23:19 13,8 C 81 % 994,5 hPa 0,0 l/m 44,3 km/h (6 Bft) W 265 0 min 0 W/m 10,6 C 4,0 C 44,3 km/h (6 Bft)
03.09.2009 23:24 13,6 C 83 % 994,5 hPa 0,0 l/m 36,7 km/h (5 Bft) W 275 0 min 0 W/m 10,8 C 4,7 C 36,7 km/h (5 Bft)
03.09.2009 23:29 13,5 C 83 % 994,5 hPa 0,0 l/m 43,8 km/h (6 Bft) W 270 0 min 0 W/m 10,7 C 3,6 C 43,8 km/h (6 Bft)
03.09.2009 23:34 13,5 C 83 % 994,5 hPa 0,0 l/m 38,7 km/h (6 Bft) W 270 0 min 0 W/m 10,7 C 4,2 C 38,7 km/h (6 Bft)
03.09.2009 23:38 13,5 C 84 % 995,5 hPa 0,0 l/m 31,6 km/h (5 Bft) W 270 0 min 0 W/m 10,8 C 5,3 C 31,6 km/h (5 Bft)
03.09.2009 23:44 13,5 C 84 % 995,5 hPa 0,0 l/m 37,3 km/h (5 Bft) W 270 0 min 0 W/m 10,8 C 4,4 C 37,3 km/h (5 Bft)
03.09.2009 23:49 13,4 C 84 % 995,5 hPa 0,0 l/m 32,9 km/h (5 Bft) W 265 0 min 0 W/m 10,8 C 4,9 C 32,9 km/h (5 Bft)
03.09.2009 23:54 13,4 C 84 % 994,5 hPa 0,0 l/m 30,6 km/h (5 Bft) W 270 0 min 0 W/m 10,8 C 5,3 C 30,6 km/h (5 Bft)
03.09.2009 23:59 13,4 C 83 % 994,5 hPa 0,0 l/m 31,3 km/h (5 Bft) W 265 0 min 0 W/m 10,6 C 5,2 C 31,3 km/h (5 Bft)
_ Min-Zeit 07:24 14:24 12:24 - 02:49 - - - - 22:24 23:29 02:49
Minimum _ 13,3 C 71 % 992,5 hPa - 3,9 km/h (1 Bft) - - - - 9,7 C 3,6 C 3,9 km/h (1 Bft)
_ Max-Zeit 14:24 11:04 00:04 11:34 18:19 - - 00:04 00:04 13:39 00:08 18:19
Maximum _ 18,4 C 91 % 1005,5 hPa 0,9 l/m 59,3 km/h
W (7 Bft)
- - 0 min 0 W/m 15,4 C 15,0 C 59,3 km/h
W (7 Bft)
Durchschnitt _ 15,0 C 81 % 996,2 hPa #7,2 l/m 24,9 km/h (4 Bft) S - #0 min. 0 W/m 11,8 C 9,7 C 24,9 km/h (4 Bft)
copyright by Holger Just